Flag for U.S.A. Weather past 2 weeks in Washington DC, District of Columbia, U.S.A.

Now
66 °F

Passing clouds.


Feels Like: 66 °F
Forecast: 58 / 80 °F
Wind: 5 mph from North

Location: Reagan National Airport

Current Time: Apr 18, 2015 at 1:54:06 AM

Latest Report: Apr 18, 2015 at 12:52 AM


Visibility: 10 mi

Pressure: 29.99 "Hg

Humidity: 78%

Dew point: 59 °F

Location of Washington DCLocation

Historic Weather in Washington DC — Graph

°F

Washington DC temperature yesterday

Maximum temperature yesterday: 78 °F (at 2:52 PM)
Minimum temperature yesterday: 59 °F (at 1:52 AM)
Average temperature yesterday: 68 °F

Past Weeks' High & Low Weather Summary

 TemperatureHumidityPressure
High79 °F (Apr 13, 3:52 PM)90% (Apr 10, 1:52 AM)30.43 "Hg (Apr 10, 1:52 AM)
Low43 °F (Apr 5, 3:52 AM)15% (Apr 5, 3:52 PM)29.60 "Hg (Apr 4, 12:52 AM)
Average60 °F58%30.14 "Hg
* Reported Apr 3 12:52 AM — Apr 18 12:52 AM, Washington DC, Weather by CustomWeather, © 2015

Note: Actual official high and low records may vary slightly from our data, if they occured in-between our weather recording intervals... More about our weather records

Advertising

Washington DC weather history for previous 24 hours

 ConditionsComfort  
Time TempWeatherWind HumidityBarometerVisibility
12:52 AM
Sat, Apr 18
66 °FPassing clouds.5 mph78%29.99 "Hg10 mi
11:52 PM
Fri, Apr 17
68 °FClear.No wind78%29.99 "Hg10 mi
10:52 PM70 °FPartly cloudy.No wind73%29.98 "Hg10 mi
9:52 PM70 °FPassing clouds.No wind73%29.98 "Hg10 mi
8:52 PM69 °FPartly cloudy.No wind76%29.96 "Hg10 mi
7:52 PM73 °FPartly sunny.5 mph66%29.94 "Hg10 mi
6:52 PM74 °FPartly sunny.7 mph62%29.93 "Hg10 mi
5:52 PM77 °FBroken clouds.8 mph50%29.93 "Hg10 mi
4:52 PM76 °FPartly sunny.No wind56%29.94 "Hg10 mi
3:52 PM78 °FBroken clouds.3 mph54%29.96 "Hg10 mi
2:52 PM78 °FPartly sunny.7 mph58%29.99 "Hg10 mi
1:52 PM74 °FPartly sunny.7 mph62%30.01 "Hg10 mi
12:52 PM73 °FScattered clouds.10 mph66%30.03 "Hg10 mi
11:52 AM71 °FScattered clouds.9 mph68%30.06 "Hg10 mi
10:52 AM70 °FScattered clouds.7 mph66%30.08 "Hg10 mi
9:52 AM67 °FScattered clouds.12 mph71%30.09 "Hg10 mi
8:52 AM63 °FBroken clouds.9 mph81%30.11 "Hg10 mi
7:52 AM61 °FBroken clouds.8 mph83%30.13 "Hg10 mi
6:55 AM59 °FPartly cloudy.8 mph82%30.13 "Hg10 mi
6:00 AM59 °FOvercast.8 mph88%30.14 "Hg10 mi
4:52 AM59 °FOvercast.9 mph84%30.15 "Hg10 mi
3:52 AM59 °FOvercast.7 mph84%30.16 "Hg10 mi
2:52 AM59 °FOvercast.7 mph84%30.17 "Hg10 mi
1:52 AM59 °FLight rain. Mostly cloudy.5 mph84%30.21 "Hg9 mi
Weather by CustomWeather, © 2015

See weather overviewHow to use our weather pages